Weather History for Las Vegas, NM

Change the Weather History Date:

Wednesday, July 24, 2013

  Actual Average Record
Temperature  
Mean Temperature 70 °F -  
Max Temperature 82 °F 81 °F 93 °F (1963)
Min Temperature 59 °F 54 °F 48 °F (1990)
Cooling Degree Days 4    
Growing Degree Days 20 (Base 50)    
Moisture  
Dew Point 50 °F    
Average Humidity 54    
Maximum Humidity 73    
Minimum Humidity 32    
Precipitation  
Precipitation 0.00 in - - ()
Sea Level Pressure  
Sea Level Pressure 30.01 in    
Wind  
Wind Speed 13 mph (East)    
Max Wind Speed 38 mph    
Max Gust Speed 51 mph    
Visibility 10 miles    
Events Thunderstorm    
Averages and records for this station are not official NWS values.
T = Trace of Precipitation, MM = Missing Value Source: NWS Daily Summary

Daily Weather History Graph

Daily Weather History Graph

Search for Another Location

Airport:

Trip Planner

Search our weather history database for the weather conditions in past years. The results will help you decide how hot, cold, wet, or windy it might be!

Date:

Astronomy

Jul. 24, 2013 Rise Set
Actual Time 6:02 AM MDT 8:10 PM MDT
Civil Twilight 5:34 AM MDT 8:39 PM MDT
Nautical Twilight 4:59 AM MDT 9:14 PM MDT
Astronomical Twilight 4:21 AM MDT 9:52 PM MDT
Moon 9:26 PM MDT (7/24) 8:19 AM MDT (7/24)
Length of Visible Light 15h 05m
Length of Day
14h 08m
Waning Gibbous, 94% of the Moon is Illuminated
Jul 24
Waning Gibbous
Jul 29
Last Quarter
Aug 6
New
Aug 14
First Quarter
Aug 20
Full

Hourly Weather History & Observations

Time (MDT) Temp. Dew Point Humidity Pressure Visibility Wind Dir Wind Speed Gust Speed Precip Events Conditions
12:53 AM 69.1 °F 44.1 °F 40% 29.90 in 10.0 mi ESE 17.3 mph - N/A   Partly Cloudy
1:09 AM 69.8 °F 42.8 °F 38% 30.30 in 10.0 mi East 17.3 mph - N/A Thunderstorm Clear
1:40 AM 71.6 °F 42.8 °F 35% 30.30 in 10.0 mi North 9.2 mph 27.6 mph N/A   Mostly Cloudy
1:53 AM 66.0 °F 46.0 °F 48% 29.89 in 10.0 mi WNW 9.2 mph - N/A   Scattered Clouds
2:53 AM 64.9 °F 45.0 °F 48% 29.87 in 10.0 mi NW 9.2 mph - N/A   Clear
3:53 AM 62.1 °F 45.0 °F 53% 29.88 in 10.0 mi NE 6.9 mph - N/A   Clear
4:53 AM 61.0 °F 45.0 °F 56% 29.90 in 10.0 mi ENE 9.2 mph - N/A   Clear
5:53 AM 60.1 °F 46.9 °F 62% 29.92 in 10.0 mi North 6.9 mph - N/A   Clear
6:53 AM 59.0 °F 46.9 °F 64% 29.96 in 10.0 mi North 5.8 mph - N/A   Clear
7:53 AM 66.0 °F 48.0 °F 52% 29.97 in 10.0 mi North 9.2 mph - N/A   Clear
8:53 AM 70.0 °F 53.1 °F 55% 29.99 in 10.0 mi NNE 13.8 mph - N/A   Clear
9:53 AM 71.1 °F 57.9 °F 63% 30.01 in 10.0 mi ENE 18.4 mph - N/A   Clear
10:53 AM 73.0 °F 57.0 °F 57% 30.02 in 10.0 mi NE 15.0 mph 23.0 mph N/A   Clear
11:53 AM 75.0 °F 55.9 °F 51% 30.03 in 10.0 mi East 12.7 mph 18.4 mph N/A   Partly Cloudy
12:53 PM 77.0 °F 55.9 °F 48% 30.00 in 10.0 mi ESE 9.2 mph 16.1 mph N/A   Clear
1:53 PM 79.0 °F 53.1 °F 40% 29.96 in 10.0 mi ENE 11.5 mph 20.7 mph N/A   Partly Cloudy
2:53 PM 80.1 °F 50.0 °F 35% 29.92 in 10.0 mi East 11.5 mph 20.7 mph N/A   Scattered Clouds
3:53 PM 80.1 °F 48.0 °F 32% 29.94 in 10.0 mi East 8.1 mph 17.3 mph N/A   Clear
4:53 PM 79.0 °F 48.9 °F 35% 29.97 in 10.0 mi ESE 16.1 mph - N/A   Partly Cloudy
5:34 PM 66.2 °F 53.6 °F 64% 30.33 in 7.0 mi SSW 38.0 mph 50.6 mph N/A   Scattered Clouds
5:53 PM 64.0 °F 55.0 °F 73% 30.05 in 10.0 mi SW 26.5 mph 36.8 mph N/A   Scattered Clouds
6:53 PM 63.0 °F 53.1 °F 70% 30.07 in 10.0 mi SSW 19.6 mph - N/A   Partly Cloudy
7:53 PM 62.1 °F 53.1 °F 72% 30.05 in 10.0 mi SW 17.3 mph - N/A   Partly Cloudy
8:53 PM 62.1 °F 52.0 °F 70% 30.02 in 10.0 mi SW 10.4 mph - N/A   Mostly Cloudy
9:53 PM 63.0 °F 52.0 °F 67% 30.02 in 10.0 mi SW 8.1 mph - N/A   Scattered Clouds
10:53 PM 64.0 °F 52.0 °F 65% 30.02 in 10.0 mi ESE 4.6 mph - N/A   Mostly Cloudy
11:53 PM 62.1 °F 51.1 °F 67% 30.03 in 10.0 mi South 11.5 mph - N/A   Mostly Cloudy